Weather History for Blair, NE

Change the Weather History Date:

Tuesday, February 18, 2014

  Actual Average (KOMA) Record (KOMA)
Temperature  
Mean Temperature 48 °F 29 °F  
Max Temperature 63 °F 39 °F 70 °F (1930)
Min Temperature 32 °F 19 °F -15 °F (1903)
Degree Days  
Heating Degree Days 18 36  
Month to date heating degree days 692  
Since 1 July heating degree days 4457  
Cooling Degree Days 0 0  
Month to date cooling degree days 0  
Year to date cooling degree days 0  
Moisture  
Dew Point 25 °F    
Average Humidity 46    
Maximum Humidity 69    
Minimum Humidity 23    
Precipitation  
Precipitation 0.00 in 0.03 in 0.68 in (1908)
Month to date precipitation 0.50  
Year to date precipitation 1.22  
Snow  
Snow 0.00 in 0.30 in - ()
Month to date snowfall 4.2  
Since 1 July snowfall 19.3  
Snow Depth -    
Sea Level Pressure  
Sea Level Pressure 29.72 in    
Wind  
Wind Speed 12 mph (WSW)    
Max Wind Speed 30 mph    
Max Gust Speed 39 mph    
Visibility 10 miles    
Events      
T = Trace of Precipitation, MM = Missing Value Source: NWS Daily Summary

Daily Weather History Graph

Daily Weather History Graph

Search for Another Location

Airport:

Trip Planner

Search our weather history database for the weather conditions in past years. The results will help you decide how hot, cold, wet, or windy it might be!

Date:

Astronomy

Feb. 18, 2014 Rise Set
Actual Time 7:15 AM CST 6:02 PM CST
Civil Twilight 6:47 AM CST 6:30 PM CST
Nautical Twilight 6:14 AM CST 7:02 PM CST
Astronomical Twilight 5:42 AM CST 7:34 PM CST
Moon 9:59 PM CST (2/18) 8:45 AM CST (2/18)
Length of Visible Light 11h 43m
Length of Day
10h 46m
Waning Gibbous, 87% of the Moon is Illuminated
Feb 18
Waning Gibbous
Feb 22
Last Quarter
Mar 1
New
Mar 8
First Quarter
Mar 16
Full

Hourly Weather History & Observations

Time (CST) Temp. Windchill Dew Point Humidity Pressure Visibility Wind Dir Wind Speed Gust Speed Precip Events Conditions
12:15 AM 37.9 °F 30.9 °F 21.7 °F 52% 29.80 in 10.0 mi South 10.4 mph - N/A   Clear
12:35 AM 35.8 °F 28.8 °F 21.9 °F 57% 29.79 in 10.0 mi South 9.2 mph - N/A   Clear
12:55 AM 37.4 °F 28.9 °F 22.6 °F 55% 29.78 in 10.0 mi South 13.8 mph - N/A   Clear
1:15 AM 38.3 °F 29.7 °F 22.6 °F 53% 29.77 in 10.0 mi South 15.0 mph - N/A   Clear
1:35 AM 38.5 °F 29.9 °F 22.5 °F 53% 29.76 in 10.0 mi South 15.0 mph - N/A   Clear
1:55 AM 37.9 °F 30.0 °F 22.5 °F 54% 29.74 in 10.0 mi South 12.7 mph - N/A   Clear
2:15 AM 37.4 °F 29.3 °F 22.1 °F 54% 29.73 in 10.0 mi South 12.7 mph - N/A   Clear
2:35 AM 36.7 °F 28.4 °F 22.5 °F 56% 29.72 in 10.0 mi South 12.7 mph - N/A   Clear
2:55 AM 35.6 °F 27.5 °F 22.1 °F 58% 29.71 in 10.0 mi South 11.5 mph - N/A   Clear
3:15 AM 34.9 °F 27.7 °F 22.5 °F 61% 29.71 in 10.0 mi South 9.2 mph - N/A   Clear
3:35 AM 32.9 °F 24.1 °F 22.1 °F 65% 29.70 in 10.0 mi South 11.5 mph - N/A   Clear
3:55 AM 36.0 °F 26.7 °F 23.2 °F 60% 29.68 in 10.0 mi South 15.0 mph - N/A   Clear
4:15 AM 37.6 °F 28.8 °F 23.7 °F 57% 29.67 in 10.0 mi South 15.0 mph - N/A   Clear
4:35 AM 37.9 °F 29.2 °F 23.9 °F 57% 29.66 in 10.0 mi South 15.0 mph - N/A   Clear
4:55 AM 37.4 °F 29.8 °F 23.7 °F 58% 29.66 in 10.0 mi South 11.5 mph - N/A   Clear
5:15 AM 36.7 °F 28.9 °F 23.7 °F 59% 29.65 in 10.0 mi South 11.5 mph - N/A   Clear
5:35 AM 36.7 °F 28.9 °F 23.7 °F 59% 29.65 in 10.0 mi South 11.5 mph - N/A   Clear
5:55 AM 36.9 °F 29.1 °F 23.9 °F 59% 29.65 in 10.0 mi SSW 11.5 mph - N/A   Clear
6:15 AM 36.9 °F 29.1 °F 23.9 °F 59% 29.65 in 10.0 mi SSW 11.5 mph - N/A   Clear
6:35 AM 38.3 °F 30.9 °F 23.9 °F 56% 29.65 in 10.0 mi SSW 11.5 mph - N/A   Clear
6:55 AM 38.3 °F 30.5 °F 23.7 °F 56% 29.64 in 10.0 mi SSW 12.7 mph - N/A   Clear
7:15 AM 37.8 °F 30.7 °F 23.5 °F 57% 29.64 in 10.0 mi SSW 10.4 mph - N/A   Clear
7:35 AM 38.1 °F 31.2 °F 23.7 °F 56% 29.65 in 10.0 mi SSW 10.4 mph - N/A   Clear
7:55 AM 39.4 °F 32.7 °F 23.9 °F 54% 29.65 in 10.0 mi SSW 10.4 mph - N/A   Clear
8:15 AM 40.1 °F 34.1 °F 24.1 °F 53% 29.63 in 10.0 mi South 9.2 mph - N/A   Clear
8:35 AM 41.7 °F 35.2 °F 23.9 °F 49% 29.64 in 10.0 mi SSW 11.5 mph - N/A   Clear
8:55 AM 42.8 °F 36.6 °F 24.4 °F 48% 29.64 in 10.0 mi SSW 11.5 mph - N/A   Clear
9:15 AM 44.6 °F 39.7 °F 24.6 °F 45% 29.63 in 10.0 mi SW 9.2 mph - N/A   Clear
9:35 AM 45.9 °F 40.8 °F 24.1 °F 42% 29.63 in 10.0 mi SW 10.4 mph - N/A   Clear
9:55 AM 48.0 °F - 24.3 °F 39% 29.62 in 10.0 mi SW 10.4 mph - N/A   Clear
10:15 AM 50.2 °F - 23.9 °F 36% 29.62 in 10.0 mi SW 11.5 mph - N/A   Clear
10:35 AM 52.2 °F - 23.9 °F 33% 29.63 in 10.0 mi WSW 16.1 mph - N/A   Clear
10:55 AM 54.0 °F - 24.4 °F 32% 29.63 in 10.0 mi WSW 11.5 mph 17.3 mph N/A   Clear
11:15 AM 56.1 °F - 23.9 °F 29% 29.64 in 10.0 mi WSW 10.4 mph - N/A   Clear
11:35 AM 57.7 °F - 23.4 °F 27% 29.64 in 10.0 mi WSW 12.7 mph 17.3 mph N/A   Clear
11:55 AM 58.3 °F - 23.5 °F 26% 29.63 in 10.0 mi WSW 15.0 mph - N/A   Clear
12:15 PM 59.4 °F - 24.1 °F 26% 29.62 in 10.0 mi WSW 15.0 mph 19.6 mph N/A   Clear
12:35 PM 59.9 °F - 24.3 °F 26% 29.62 in 10.0 mi WSW 13.8 mph - N/A   Clear
12:55 PM 60.3 °F - 24.6 °F 26% 29.62 in 10.0 mi WSW 15.0 mph - N/A   Clear
1:15 PM 59.2 °F - 23.9 °F 26% 29.62 in 10.0 mi WSW 9.2 mph 18.4 mph N/A   Clear
1:35 PM 59.2 °F - 24.1 °F 26% 29.62 in 10.0 mi West 8.1 mph - N/A   Clear
1:55 PM 58.3 °F - 24.6 °F 27% 29.62 in 10.0 mi WNW 9.2 mph - N/A   Clear
2:15 PM 59.9 °F - 24.6 °F 26% 29.63 in 10.0 mi West 10.4 mph - N/A   Clear
2:35 PM 61.3 °F - 23.9 °F 24% 29.63 in 10.0 mi West 13.8 mph - N/A   Clear
2:55 PM 62.6 °F - 24.8 °F 24% 29.64 in 10.0 mi West 12.7 mph 20.7 mph N/A   Clear
3:15 PM 63.1 °F - 25.2 °F 24% 29.64 in 10.0 mi WNW 18.4 mph 24.2 mph N/A   Clear
3:35 PM 63.7 °F - 25.0 °F 23% 29.65 in 10.0 mi WNW 13.8 mph 21.9 mph N/A   Clear
3:55 PM 62.4 °F - 25.9 °F 25% 29.67 in 10.0 mi NW 26.5 mph 38.0 mph N/A   Clear
4:15 PM 59.9 °F - 25.5 °F 27% 29.69 in 10.0 mi NW 29.9 mph 35.7 mph N/A   Clear
4:35 PM 58.8 °F - 27.5 °F 30% 29.71 in 10.0 mi NW 26.5 mph 34.5 mph N/A   Clear
4:55 PM 57.9 °F - 28.4 °F 32% 29.73 in 10.0 mi NNW 25.3 mph 34.5 mph N/A   Clear
5:15 PM 55.8 °F - 29.3 °F 36% 29.75 in 10.0 mi NW 29.9 mph 39.1 mph N/A   Clear
5:35 PM 54.3 °F - 28.2 °F 37% 29.77 in 10.0 mi NW 19.6 mph 27.6 mph N/A   Clear
5:55 PM 52.2 °F - 28.4 °F 40% 29.80 in 10.0 mi NW 15.0 mph - N/A   Clear
6:15 PM 51.4 °F - 28.8 °F 42% 29.81 in 10.0 mi NW 20.7 mph 27.6 mph N/A   Clear
6:35 PM 49.8 °F - 29.8 °F 46% 29.83 in 10.0 mi NW 15.0 mph - N/A   Scattered Clouds
6:55 PM 47.3 °F - 29.7 °F 50% 29.84 in 10.0 mi NW 10.4 mph - N/A   Scattered Clouds
7:15 PM 45.5 °F 43.2 °F 28.9 °F 52% 29.86 in 10.0 mi WNW 4.6 mph - N/A   Clear
7:35 PM 44.6 °F 42.2 °F 28.8 °F 54% 29.86 in 10.0 mi WNW 4.6 mph - N/A   Clear
7:55 PM 43.9 °F 39.9 °F 28.6 °F 55% 29.86 in 10.0 mi WNW 6.9 mph - N/A   Clear
8:15 PM 43.0 °F 38.2 °F 27.5 °F 54% 29.87 in 10.0 mi WNW 8.1 mph - N/A   Clear
8:35 PM 42.8 °F 38.6 °F 25.7 °F 51% 29.87 in 10.0 mi WNW 6.9 mph - N/A   Clear
8:55 PM 41.5 °F 37.1 °F 24.8 °F 51% 29.89 in 10.0 mi WNW 6.9 mph - N/A   Clear
9:15 PM 40.5 °F 35.1 °F 24.4 °F 53% 29.89 in 10.0 mi WNW 8.1 mph - N/A   Clear
9:35 PM 41.0 °F 34.7 °F 25.3 °F 54% 29.90 in 10.0 mi WNW 10.4 mph - N/A   Clear
9:55 PM 40.8 °F 35.6 °F 25.3 °F 54% 29.91 in 10.0 mi WNW 8.1 mph - N/A   Clear
10:15 PM 41.0 °F 33.9 °F 26.8 °F 57% 29.91 in 10.0 mi NW 12.7 mph 16.1 mph N/A   Clear
10:35 PM 40.5 °F 33.6 °F 27.1 °F 59% 29.91 in 10.0 mi WNW 11.5 mph - N/A   Clear
10:55 PM 39.6 °F 33.0 °F 27.7 °F 62% 29.92 in 10.0 mi NW 10.4 mph 16.1 mph N/A   Clear
11:15 PM 38.8 °F 33.2 °F 28.4 °F 66% 29.93 in 10.0 mi WNW 8.1 mph - N/A   Clear
11:55 PM 36.9 °F 32.2 °F 27.5 °F 69% 29.91 in 10.0 mi WNW 5.8 mph - N/A   Clear